Hourly Data Report for July 14, 2021

CAMPBELL RIVER A
BRITISH COLUMBIA
Current Station Operator: NAVCAN

49°57'07.000" N
125°16'23.000" W
108.80 m
1021270
YBL

Download Data

Hourly Data (July 2021)
Hourly Data Report for July 14, 2021
TIME
LST
Temp Definition
°C
Dew Point Definition
°C
Rel Hum Definition
%
Precip. Amount Definition
mm

Wind Dir Definition
10's deg

Wind Spd Definition
km/h
Visibility Definition
km
Stn Press Definition
kPa
Hmdx Definition


Wind Chill Definition


Weather Definition


00:00 17.3 10.9 66 LegendMM 29 9 LegendMM 100.27     LegendNANA
01:00 15.9 11.1 73 LegendMM 31 13 LegendMM 100.27     LegendNANA
02:00 14.8 11.2 79 LegendMM 28 9 LegendMM 100.30     LegendNANA
03:00 14.0 11.3 83 LegendMM 28 11 LegendMM 100.31     LegendNANA
04:00 13.4 11.1 86 LegendMM 30 11 LegendMM 100.32     LegendNANA
05:00 13.0 11.0 87 LegendMM 30 11 LegendMM 100.34     LegendNANA
06:00 14.7 11.3 80 LegendMM 31 12 LegendMM 100.37     LegendNANA
07:00 16.2 11.2 72 LegendMM 32 12 LegendMM 100.37     LegendNANA
08:00 18.5 11.3 63 LegendMM 34 16 LegendMM 100.38     LegendNANA
09:00 19.4 11.4 59 LegendMM 32 13 LegendMM 100.37     LegendNANA
10:00 20.6 12.2 58 LegendMM 8 4 LegendMM 100.32     LegendNANA
11:00 21.8 12.0 53 LegendMM 9 13 LegendMM 100.31     LegendNANA
12:00 21.8 12.0 53 LegendMM 6 9 LegendMM 100.30     LegendNANA
13:00 24.1 11.9 46 LegendMM 7 14 LegendMM 100.26 26   LegendNANA
14:00 24.6 12.2 45 LegendMM 9 7 LegendMM 100.23 27   LegendNANA
15:00 24.6 12.4 46 LegendMM 4 9 LegendMM 100.20 27   LegendNANA
16:00 25.1 12.6 45 LegendMM 6 9 LegendMM 100.16 28   LegendNANA
17:00 25.7 11.5 41 LegendMM 8 13 LegendMM 100.09 28   LegendNANA
18:00 25.5 10.5 38 LegendMM 3 11 LegendMM 100.06 27   LegendNANA
19:00 24.0 10.2 41 LegendMM 34 16 LegendMM 100.07 25   LegendNANA
20:00 20.6 11.2 54 LegendMM 30 8 LegendMM 100.08     LegendNANA
21:00 18.8 9.0 53 LegendMM 31 13 LegendMM 100.12     LegendNANA
22:00 18.2 8.4 52 LegendMM 30 16 LegendMM 100.15     LegendNANA
23:00 16.4 8.5 59 LegendMM 30 10 LegendMM 100.16     LegendNANA

Notes on Data Quality.

Legend

  • E = Estimated
  • M = Missing
  • NA = Not Available*
  • [empty] = Indicates an unobserved value
Date modified: